Weather History for KCJR - January, 2014

Change the Weather History Date:

Monday, January 13, 2014

  Actual Average (KOMH) Record (KOMH)
Temperature  
Mean Temperature 43 °F -  
Max Temperature 60 °F 40 °F 69 °F (2005)
Min Temperature 26 °F 20 °F 0 °F (1977)
Degree Days  
Heating Degree Days 22    
Moisture  
Dew Point 32 °F    
Average Humidity 68    
Maximum Humidity 100    
Minimum Humidity 36    
Precipitation  
Precipitation 0.00 in - - ()
Sea Level Pressure  
Sea Level Pressure 30.01 in    
Wind  
Wind Speed 3 mph (SSW)    
Max Wind Speed 14 mph    
Max Gust Speed 22 mph    
Visibility 10 miles    
Events Rain    
Averages and records for this station are not official NWS values.
T = Trace of Precipitation, MM = Missing Value Source: NWS Daily Summary

Daily Weather History Graph

Daily Weather History Graph

Search for Another Location

Airport or City:

Trip Planner

Search our weather history database for the weather conditions in past years. The results will help you decide how hot, cold, wet, or windy it might be!

Date:

Astronomy

Jan. 13, 2014 Rise Set
Actual Time 7:28 AM EST 5:12 PM EST
Civil Twilight 6:59 AM EST 5:41 PM EST
Nautical Twilight 6:26 AM EST 6:14 PM EST
Astronomical Twilight 5:54 AM EST 6:46 PM EST
Moon 3:25 PM EST (1/13) 5:15 AM EST (1/13)
Length of Visible Light 10h 42m
Length of Day
9h 44m
Waxing Gibbous, 95% of the Moon is Illuminated
Jan 13
Waxing Gibbous
Jan 15
Full
Jan 24
Last Quarter
Jan 30
New
Feb 6
First Quarter

Hourly Weather History & Observations

Time (EST) Temp. Windchill Dew Point Humidity Pressure Visibility Wind Dir Wind Speed Gust Speed Precip Events Conditions
12:15 AM 30.2 °F - 30.2 °F 100% 30.10 in 10.0 mi Calm Calm - N/A   Clear
12:35 AM 28.4 °F - 28.4 °F 100% 30.10 in 10.0 mi Calm Calm - N/A   Clear
12:55 AM 28.4 °F - 28.4 °F 100% 30.10 in 10.0 mi Calm Calm - N/A   Clear
1:15 AM 28.4 °F - 28.4 °F 100% 30.10 in 10.0 mi Calm Calm - N/A   Clear
1:35 AM 28.4 °F - 28.4 °F 100% 30.10 in 10.0 mi Calm Calm - N/A   Clear
2:15 AM 28.4 °F - 28.4 °F 100% 30.09 in 10.0 mi Calm Calm - N/A   Clear
2:35 AM 28.4 °F - 28.4 °F 100% 30.09 in 10.0 mi Calm Calm - N/A   Clear
2:55 AM 28.4 °F - 28.4 °F 100% 30.09 in 10.0 mi Calm Calm - N/A   Clear
3:15 AM 28.4 °F - 28.4 °F 100% 30.10 in 10.0 mi Calm Calm - N/A   Clear
3:35 AM 26.6 °F - 26.6 °F 100% 30.08 in 10.0 mi Calm Calm - N/A   Clear
3:55 AM 26.6 °F - 26.6 °F 100% 30.08 in 10.0 mi Calm Calm - N/A   Clear
4:15 AM 26.6 °F - 26.6 °F 100% 30.09 in 10.0 mi Calm Calm - N/A   Clear
4:35 AM 26.6 °F 22.6 °F 26.6 °F 100% 30.08 in 10.0 mi NNE 3.5 mph - N/A   Clear
4:55 AM 28.4 °F - 28.4 °F 100% 30.08 in 10.0 mi Calm Calm - N/A   Clear
5:15 AM 26.6 °F - 26.6 °F 100% 30.08 in 10.0 mi Calm Calm - N/A   Clear
5:35 AM 26.6 °F - 26.6 °F 100% 30.09 in 10.0 mi Calm Calm - N/A   Clear
5:55 AM 26.6 °F - 26.6 °F 100% 30.09 in 10.0 mi Calm Calm - N/A   Clear
6:15 AM 26.6 °F - 26.6 °F 100% 30.09 in 10.0 mi Calm Calm - N/A   Clear
6:35 AM 26.6 °F - 26.6 °F 100% 30.08 in 10.0 mi Calm Calm - N/A   Clear
6:55 AM 26.6 °F - 26.6 °F 100% 30.07 in 10.0 mi Calm Calm - N/A   Clear
7:15 AM 26.6 °F - 26.6 °F 100% 30.08 in 10.0 mi Calm Calm - N/A   Clear
7:35 AM 26.6 °F - 26.6 °F 100% 30.09 in 10.0 mi Calm Calm - N/A   Clear
7:55 AM 26.6 °F - 26.6 °F 100% 30.10 in 10.0 mi Calm Calm - N/A   Clear
8:15 AM 26.6 °F - 26.6 °F 100% 30.10 in 10.0 mi Calm Calm - N/A   Clear
8:35 AM 28.4 °F - 28.4 °F 100% 30.10 in 10.0 mi Calm Calm - N/A   Clear
8:55 AM 33.8 °F - 33.8 °F 100% 30.10 in 10.0 mi Calm Calm - N/A   Clear
9:15 AM 37.4 °F - 35.6 °F 93% 30.09 in 10.0 mi Calm Calm - N/A   Clear
9:35 AM 41.0 °F - 30.2 °F 65% 30.09 in 10.0 mi Calm Calm - N/A   Clear
9:55 AM 41.0 °F - 30.2 °F 65% 30.08 in 10.0 mi Calm Calm - N/A   Clear
10:15 AM 42.8 °F - 32.0 °F 66% 30.08 in 10.0 mi Calm Calm - N/A   Clear
10:35 AM 46.4 °F 45.2 °F 33.8 °F 62% 30.07 in 10.0 mi South 3.5 mph - N/A   Clear
10:55 AM 50.0 °F - 33.8 °F 54% 30.06 in 10.0 mi SSW 11.5 mph - N/A   Clear
11:15 AM 50.0 °F - 33.8 °F 54% 30.05 in 10.0 mi South 10.4 mph 18.4 mph N/A   Clear
11:35 AM 51.8 °F - 33.8 °F 50% 30.03 in 10.0 mi South 11.5 mph - N/A   Clear
11:55 AM 53.6 °F - 33.8 °F 47% 30.02 in 10.0 mi South 8.1 mph - N/A   Clear
12:15 PM 57.2 °F - 35.6 °F 44% 30.01 in 10.0 mi South 9.2 mph - N/A   Clear
12:35 PM 57.2 °F - 33.8 °F 41% 29.99 in 10.0 mi SSW 9.2 mph 16.1 mph N/A   Clear
12:55 PM 57.2 °F - 33.8 °F 41% 29.98 in 10.0 mi SSW 12.7 mph 21.9 mph N/A   Clear
1:15 PM 57.2 °F - 35.6 °F 44% 29.97 in 10.0 mi SSW 10.4 mph - N/A   Clear
1:35 PM 59.0 °F - 33.8 °F 39% 29.95 in 10.0 mi SSW 11.5 mph - N/A   Clear
1:55 PM 57.2 °F - 35.6 °F 44% 29.95 in 10.0 mi SSW 8.1 mph - N/A   Clear
2:15 PM 60.8 °F - 33.8 °F 36% 29.95 in 10.0 mi SSW 13.8 mph 19.6 mph N/A   Clear
2:35 PM 60.8 °F - 33.8 °F 36% 29.94 in 10.0 mi SSW 10.4 mph 17.3 mph N/A   Clear
2:55 PM 60.8 °F - 35.6 °F 39% 29.94 in 10.0 mi SSW 8.1 mph - N/A   Clear
3:15 PM 60.8 °F - 33.8 °F 36% 29.95 in 10.0 mi SSW 9.2 mph 16.1 mph N/A   Clear
3:35 PM 60.8 °F - 33.8 °F 36% 29.94 in 10.0 mi SSW 8.1 mph - N/A   Clear
3:55 PM 60.8 °F - 33.8 °F 36% 29.96 in 10.0 mi SSW 12.7 mph - N/A   Clear
4:15 PM 59.0 °F - 35.6 °F 42% 29.95 in 10.0 mi SW 5.8 mph - N/A   Clear
4:35 PM 57.2 °F - 35.6 °F 44% 29.96 in 10.0 mi SW 5.8 mph - N/A   Clear
4:55 PM 57.2 °F - 35.6 °F 44% 29.95 in 10.0 mi SW 4.6 mph - N/A   Clear
5:15 PM 57.2 °F - 33.8 °F 41% 29.95 in 10.0 mi South 3.5 mph - N/A   Clear
5:35 PM 55.4 °F - 35.6 °F 47% 29.92 in 10.0 mi SSE 4.6 mph - N/A   Clear
5:55 PM 53.6 °F - 33.8 °F 47% 29.93 in 10.0 mi Calm Calm - N/A   Clear
6:15 PM 50.0 °F - 35.6 °F 58% 29.93 in 10.0 mi SSW 3.5 mph - N/A   Clear
6:35 PM 53.6 °F - 35.6 °F 51% 29.93 in 10.0 mi Calm Calm - N/A   Clear
6:55 PM 53.6 °F - 35.6 °F 51% 29.93 in 10.0 mi South 3.5 mph - N/A   Clear
7:15 PM 53.6 °F - 35.6 °F 51% 29.93 in 10.0 mi South 4.6 mph - N/A   Clear
7:35 PM 53.6 °F - 35.6 °F 51% 29.93 in 10.0 mi South 4.6 mph - N/A   Clear
7:55 PM 53.6 °F - 35.6 °F 51% 29.94 in 10.0 mi SSW 4.6 mph - N/A   Clear
8:15 PM 53.6 °F - 35.6 °F 51% 29.94 in 10.0 mi South 5.8 mph - N/A   Clear
8:35 PM 53.6 °F - 35.6 °F 51% 29.92 in 10.0 mi South 4.6 mph - N/A   Clear
8:55 PM 53.6 °F - 35.6 °F 51% 29.93 in 10.0 mi South 3.5 mph - N/A   Clear
9:15 PM 53.6 °F - 35.6 °F 51% 29.92 in 10.0 mi South 4.6 mph - N/A   Clear
9:35 PM 53.6 °F - 35.6 °F 51% 29.92 in 10.0 mi South 4.6 mph - N/A   Clear
9:55 PM 53.6 °F - 35.6 °F 51% 29.91 in 10.0 mi South 3.5 mph - N/A   Clear
10:15 PM 53.6 °F - 35.6 °F 51% 29.90 in 10.0 mi South 5.8 mph - N/A   Clear
10:35 PM 53.6 °F - 35.6 °F 51% 29.90 in 10.0 mi South 6.9 mph - N/A   Clear
10:55 PM 53.6 °F - 35.6 °F 51% 29.91 in 10.0 mi SSW 13.8 mph 19.6 mph N/A   Clear
11:15 PM 53.6 °F - 35.6 °F 51% 29.90 in 10.0 mi South 10.4 mph 18.4 mph N/A   Clear
11:35 PM 53.6 °F - 35.6 °F 51% 29.90 in 10.0 mi South 9.2 mph - N/A Rain Rain
11:55 PM 51.8 °F - 39.2 °F 62% 29.89 in 10.0 mi South 8.1 mph - N/A Rain Light Rain